DAL1088 KFLL-KTPA

Flight info

Callsign DAL1088
Flight time 0h 34m
Altitude 21000
Route BNICE2 COREA BLFRG3
Aircraft A321/M-SDE3FGHIRWY/LB1

Departure

Time 2026-05-03 23:04
Airport Fort Lauderdale Hollywood International Airport (KFLL)

Arrival

Time 2026-05-03 23:38
Airport Tampa International Airport (KTPA)
Time Latitude Longitude Altitude Speed Heading
2026-05-03 22:09 26.07268 -80.14652 20 ft 0 kts 43°
2026-05-03 22:12 26.07268 -80.14653 19 ft 0 kts 43°
2026-05-03 22:33 26.07265 -80.14656 19 ft 3 kts 43°
2026-05-03 22:33 26.07251 -80.14671 21 ft 3 kts 28°
2026-05-03 22:33 26.07232 -80.14678 21 ft 3 kts 358°
2026-05-03 22:33 26.07214 -80.14674 22 ft 3 kts 328°
2026-05-03 22:34 26.07200 -80.14660 21 ft 3 kts 297°
2026-05-03 22:34 26.07197 -80.14655 21 ft 0 kts 288°
2026-05-03 22:40 26.07199 -80.14662 21 ft 3 kts 289°
2026-05-03 22:40 26.07210 -80.14733 21 ft 15 kts 271°
2026-05-03 22:40 26.07159 -80.14818 23 ft 8 kts 228°
2026-05-03 22:40 26.07133 -80.14869 23 ft 9 kts 258°
2026-05-03 22:41 26.07157 -80.14934 23 ft 10 kts 308°
2026-05-03 22:41 26.07157 -80.15002 23 ft 10 kts 235°
2026-05-03 22:41 26.07084 -80.15087 26 ft 21 kts 224°
2026-05-03 22:41 26.06961 -80.15129 31 ft 16 kts 182°
2026-05-03 22:42 26.06820 -80.15131 34 ft 27 kts 180°
2026-05-03 22:42 26.06714 -80.15143 36 ft 9 kts 211°
2026-05-03 22:42 26.06696 -80.15214 36 ft 16 kts 270°
2026-05-03 22:42 26.06696 -80.15244 36 ft 0 kts 271°
2026-05-03 22:43 26.06697 -80.15265 36 ft 12 kts 271°
2026-05-03 22:43 26.06697 -80.15306 35 ft 0 kts 270°
2026-05-03 22:44 26.06697 -80.15308 35 ft 2 kts 269°
2026-05-03 22:44 26.06696 -80.15340 35 ft 2 kts 268°
2026-05-03 22:44 26.06696 -80.15346 35 ft 0 kts 268°
2026-05-03 22:45 26.06696 -80.15347 35 ft 1 kts 268°
2026-05-03 22:45 26.06697 -80.15398 33 ft 0 kts 271°
2026-05-03 22:46 26.06697 -80.15458 32 ft 10 kts 270°
2026-05-03 22:46 26.06698 -80.15461 31 ft 0 kts 270°
2026-05-03 22:47 26.06698 -80.15471 31 ft 4 kts 270°
2026-05-03 22:47 26.06698 -80.15478 31 ft 0 kts 270°
2026-05-03 22:49 26.06698 -80.15488 30 ft 4 kts 270°
2026-05-03 22:50 26.06698 -80.15489 30 ft 1 kts 270°
2026-05-03 22:51 26.06698 -80.15537 29 ft 0 kts 270°
2026-05-03 22:52 26.06698 -80.15551 28 ft 9 kts 271°
2026-05-03 22:52 26.06699 -80.15588 27 ft 0 kts 272°
2026-05-03 22:54 26.06699 -80.15592 27 ft 4 kts 272°
2026-05-03 22:54 26.06699 -80.15633 29 ft 0 kts 269°
2026-05-03 22:55 26.06699 -80.15636 29 ft 0 kts 269°
2026-05-03 22:56 26.06699 -80.15653 25 ft 0 kts 269°
2026-05-03 22:56 26.06698 -80.15677 24 ft 5 kts 269°
2026-05-03 22:56 26.06698 -80.15680 24 ft 0 kts 269°
2026-05-03 22:57 26.06698 -80.15683 24 ft 3 kts 269°
2026-05-03 22:58 26.06698 -80.15702 24 ft 3 kts 269°
2026-05-03 22:58 26.06698 -80.15747 22 ft 0 kts 272°
2026-05-03 22:58 26.06699 -80.15761 22 ft 7 kts 272°
2026-05-03 22:58 26.06699 -80.15774 22 ft 0 kts 271°
2026-05-03 22:59 26.06698 -80.15777 21 ft 0 kts 262°
2026-05-03 23:01 26.06687 -80.15808 20 ft 7 kts 230°
2026-05-03 23:01 26.06679 -80.15813 22 ft 0 kts 214°
2026-05-03 23:02 26.06654 -80.15821 17 ft 14 kts 186°
2026-05-03 23:03 26.06589 -80.15751 21 ft 10 kts 85°
2026-05-03 23:03 26.06589 -80.15736 22 ft 0 kts 89°
2026-05-03 23:03 26.06589 -80.15735 22 ft 1 kts 89°
2026-05-03 23:03 26.06588 -80.15508 30 ft 65 kts 90°
2026-05-03 23:04 26.06585 -80.14765 41 ft 125 kts 90°
2026-05-03 23:04 26.06554 -80.13623 90 ft 167 kts 95°
2026-05-03 23:04 26.06495 -80.12313 640 ft 167 kts 82°
2026-05-03 23:04 26.06718 -80.11030 1198 ft 171 kts 88°
2026-05-03 23:05 26.07021 -80.09683 1600 ft 191 kts 71°
2026-05-03 23:05 26.07641 -80.08264 2154 ft 217 kts 56°
2026-05-03 23:05 26.08633 -80.06910 2824 ft 228 kts 38°
2026-05-03 23:05 26.09925 -80.06044 3797 ft 212 kts 15°
2026-05-03 23:06 26.11372 -80.05493 4061 ft 234 kts 12°
2026-05-03 23:06 26.13055 -80.05018 4057 ft 265 kts
2026-05-03 23:06 26.14911 -80.04757 4047 ft 271 kts 354°
2026-05-03 23:06 26.16767 -80.05074 4085 ft 271 kts 339°
2026-05-03 23:07 26.18538 -80.05799 4797 ft 271 kts 336°
2026-05-03 23:07 26.19717 -80.06274 5356 ft 271 kts 336°
2026-05-03 23:07 26.21384 -80.07238 6135 ft 269 kts 321°
2026-05-03 23:07 26.22704 -80.08701 6838 ft 268 kts 303°
2026-05-03 23:08 26.23566 -80.10530 7530 ft 268 kts 289°
2026-05-03 23:08 26.24247 -80.12482 8192 ft 271 kts 289°
2026-05-03 23:08 26.24931 -80.14423 8840 ft 274 kts 288°
2026-05-03 23:08 26.25528 -80.16446 9480 ft 275 kts 278°
2026-05-03 23:09 26.25836 -80.18558 10094 ft 277 kts 276°
2026-05-03 23:09 26.26142 -80.20735 10337 ft 295 kts 276°
2026-05-03 23:09 26.26470 -80.23072 10458 ft 315 kts 276°
2026-05-03 23:09 26.26822 -80.25555 10579 ft 334 kts 276°
2026-05-03 23:10 26.27196 -80.28178 10700 ft 352 kts 277°
2026-05-03 23:10 26.27590 -80.30938 10822 ft 369 kts 277°
2026-05-03 23:10 26.28000 -80.33816 11003 ft 381 kts 277°
2026-05-03 23:10 26.28419 -80.36761 11424 ft 386 kts 277°
2026-05-03 23:11 26.28836 -80.39686 11936 ft 388 kts 277°
2026-05-03 23:11 26.29262 -80.42669 12427 ft 390 kts 276°
2026-05-03 23:11 26.29686 -80.45660 12911 ft 391 kts 276°
2026-05-03 23:11 26.30109 -80.48667 13384 ft 393 kts 276°
2026-05-03 23:12 26.30537 -80.51687 13858 ft 395 kts 276°
2026-05-03 23:12 26.30969 -80.54732 14280 ft 397 kts 276°
2026-05-03 23:12 26.31400 -80.57785 14692 ft 399 kts 276°
2026-05-03 23:12 26.31833 -80.60851 15112 ft 401 kts 276°
2026-05-03 23:13 26.32257 -80.63885 15523 ft 402 kts 276°
2026-05-03 23:13 26.32687 -80.66981 15941 ft 404 kts 276°
2026-05-03 23:13 26.33116 -80.70087 16384 ft 406 kts 276°
2026-05-03 23:13 26.33545 -80.73197 16827 ft 407 kts 276°
2026-05-03 23:14 26.33709 -80.74386 16980 ft 408 kts 276°
2026-05-03 23:14 26.34143 -80.77523 17390 ft 410 kts 276°
2026-05-03 23:14 26.34579 -80.80665 17807 ft 411 kts 276°
2026-05-03 23:14 26.35018 -80.83833 18216 ft 413 kts 276°
2026-05-03 23:15 26.35460 -80.87002 18576 ft 415 kts 276°
2026-05-03 23:15 26.36170 -80.90096 18899 ft 421 kts 286°
2026-05-03 23:15 26.37435 -80.93074 19233 ft 429 kts 296°
2026-05-03 23:15 26.39230 -80.95777 19563 ft 438 kts 307°
2026-05-03 23:16 26.41439 -80.98162 19890 ft 443 kts 311°
2026-05-03 23:16 26.43697 -81.00514 20221 ft 445 kts 311°
2026-05-03 23:16 26.45964 -81.02884 20551 ft 447 kts 311°
2026-05-03 23:16 26.48236 -81.05267 20879 ft 448 kts 311°
2026-05-03 23:17 26.50485 -81.07628 21020 ft 449 kts 311°
2026-05-03 23:17 26.52762 -81.10021 21057 ft 449 kts 311°
2026-05-03 23:17 26.55029 -81.12409 21052 ft 448 kts 311°
2026-05-03 23:17 26.57299 -81.14806 21050 ft 448 kts 310°
2026-05-03 23:18 26.59568 -81.17206 21052 ft 448 kts 310°
2026-05-03 23:18 26.61835 -81.19603 21054 ft 448 kts 310°
2026-05-03 23:18 26.64022 -81.22064 21052 ft 444 kts 305°
2026-05-03 23:18 26.65963 -81.24734 21048 ft 442 kts 303°
2026-05-03 23:19 26.67889 -81.27411 21049 ft 442 kts 303°
2026-05-03 23:19 26.69815 -81.30093 21062 ft 442 kts 303°
2026-05-03 23:19 26.71718 -81.32739 21063 ft 442 kts 303°
2026-05-03 23:19 26.73648 -81.35421 21063 ft 442 kts 303°
2026-05-03 23:20 26.75575 -81.38099 21064 ft 442 kts 303°
2026-05-03 23:20 26.77511 -81.40790 21062 ft 442 kts 303°
2026-05-03 23:20 26.79438 -81.43470 21069 ft 441 kts 303°
2026-05-03 23:20 26.81336 -81.46118 21067 ft 441 kts 303°
2026-05-03 23:21 26.83255 -81.48796 21070 ft 441 kts 303°
2026-05-03 23:21 26.85176 -81.51482 21070 ft 441 kts 303°
2026-05-03 23:21 26.87095 -81.54164 21074 ft 441 kts 303°
2026-05-03 23:21 26.89013 -81.56843 21069 ft 440 kts 303°
2026-05-03 23:22 26.92834 -81.62181 21074 ft 440 kts 303°
2026-05-03 23:22 26.94751 -81.64862 21075 ft 440 kts 303°
2026-05-03 23:22 26.96664 -81.67541 21079 ft 440 kts 303°
2026-05-03 23:23 26.98577 -81.70220 21078 ft 439 kts 303°
2026-05-03 23:23 27.00491 -81.72904 21080 ft 439 kts 303°
2026-05-03 23:23 27.02375 -81.75550 21083 ft 439 kts 303°
2026-05-03 23:23 27.04282 -81.78234 21081 ft 439 kts 302°
2026-05-03 23:24 27.06190 -81.80918 21080 ft 439 kts 303°
2026-05-03 23:24 27.08183 -81.83524 21077 ft 444 kts 309°
2026-05-03 23:24 27.10560 -81.85790 21077 ft 451 kts 317°
2026-05-03 23:24 27.13035 -81.87859 21073 ft 442 kts 317°
2026-05-03 23:25 27.15447 -81.89871 21074 ft 421 kts 316°
2026-05-03 23:25 27.17746 -81.91794 21072 ft 401 kts 316°
2026-05-03 23:25 27.19929 -81.93633 21069 ft 382 kts 315°
2026-05-03 23:25 27.22023 -81.95410 21067 ft 374 kts 315°
2026-05-03 23:26 27.24072 -81.97161 21068 ft 372 kts 315°
2026-05-03 23:26 27.26134 -81.98926 21069 ft 372 kts 315°
2026-05-03 23:26 27.28200 -82.00692 21068 ft 372 kts 315°
2026-05-03 23:26 27.30263 -82.02451 21068 ft 372 kts 315°
2026-05-03 23:27 27.32303 -82.04188 21009 ft 372 kts 315°
2026-05-03 23:27 27.34358 -82.05936 20651 ft 368 kts 315°
2026-05-03 23:27 27.36416 -82.07685 20293 ft 369 kts 315°
2026-05-03 23:27 27.38416 -82.09423 19685 ft 365 kts 314°
2026-05-03 23:28 27.40384 -82.11219 19078 ft 362 kts 313°
2026-05-03 23:28 27.42322 -82.13035 18453 ft 361 kts 312°
2026-05-03 23:28 27.44240 -82.14855 17784 ft 358 kts 311°
2026-05-03 23:28 27.46053 -82.16701 17149 ft 353 kts 309°
2026-05-03 23:29 27.47812 -82.18617 16557 ft 349 kts 308°
2026-05-03 23:29 27.49524 -82.20544 16003 ft 345 kts 308°
2026-05-03 23:29 27.51207 -82.22450 15447 ft 341 kts 308°
2026-05-03 23:29 27.52882 -82.24333 14930 ft 337 kts 309°
2026-05-03 23:30 27.54543 -82.26178 14408 ft 333 kts 309°
2026-05-03 23:30 27.56175 -82.27975 13918 ft 330 kts 309°
2026-05-03 23:30 27.57814 -82.29775 13383 ft 327 kts 310°
2026-05-03 23:30 27.59448 -82.31567 12895 ft 327 kts 310°
2026-05-03 23:31 27.61081 -82.33354 12402 ft 327 kts 310°
2026-05-03 23:31 27.62715 -82.35141 11868 ft 328 kts 311°
2026-05-03 23:31 27.64348 -82.36928 11316 ft 322 kts 311°
2026-05-03 23:31 27.65898 -82.38621 10794 ft 306 kts 311°
2026-05-03 23:32 27.67391 -82.40266 10285 ft 291 kts 308°
2026-05-03 23:32 27.68547 -82.42046 9750 ft 275 kts 301°
2026-05-03 23:32 27.69658 -82.43769 9065 ft 269 kts 305°
2026-05-03 23:32 27.70855 -82.45427 7872 ft 283 kts 308°
2026-05-03 23:33 27.72165 -82.47169 6628 ft 297 kts 310°
2026-05-03 23:33 27.73529 -82.48984 5287 ft 308 kts 311°
2026-05-03 23:33 27.74930 -82.50871 4017 ft 317 kts 311°
2026-05-03 23:33 27.76305 -82.52753 3421 ft 300 kts 311°
2026-05-03 23:34 27.77733 -82.54244 3200 ft 266 kts 333°
2026-05-03 23:34 27.79388 -82.54790 2950 ft 236 kts
2026-05-03 23:34 27.80959 -82.54760 2703 ft 216 kts
2026-05-03 23:34 27.82418 -82.54711 2474 ft 200 kts
2026-05-03 23:35 27.83747 -82.54665 2377 ft 183 kts
2026-05-03 23:35 27.85002 -82.54621 2180 ft 177 kts
2026-05-03 23:35 27.86209 -82.54580 1970 ft 168 kts
2026-05-03 23:35 27.87336 -82.54542 1757 ft 158 kts
2026-05-03 23:36 27.88417 -82.54505 1555 ft 155 kts
2026-05-03 23:36 27.89490 -82.54468 1351 ft 152 kts
2026-05-03 23:36 27.90553 -82.54432 1148 ft 152 kts
2026-05-03 23:36 27.91605 -82.54399 947 ft 148 kts
2026-05-03 23:37 27.92577 -82.54377 765 ft 133 kts
2026-05-03 23:37 27.93504 -82.54330 595 ft 144 kts
2026-05-03 23:37 27.94476 -82.54262 579 ft 138 kts
2026-05-03 23:37 27.95441 -82.54277 414 ft 137 kts
2026-05-03 23:38 27.96395 -82.54246 126 ft 135 kts
2026-05-03 23:38 27.97277 -82.54208 24 ft 101 kts
2026-05-03 23:38 27.97690 -82.54188 19 ft 29 kts
2026-05-03 23:38 27.97877 -82.54152 22 ft 27 kts 29°
2026-05-03 23:39 27.98016 -82.54048 23 ft 18 kts 60°
2026-05-03 23:39 27.98000 -82.53960 26 ft 10 kts 115°
2026-05-03 23:39 27.97993 -82.53898 26 ft 0 kts 93°